Location: Kellogg
(38.0159°N, 90.0546°W)
Time: 00:41:53
(UTC+00:00)

Vanguard 2 - Pass Details

Date: 21 September 2024
Orbit: 552 x 2910 km, 32.9° (Epoch: 15 October)

Event Time Altitude Azimuth Distance (km) Brightness Sun altitude
Rises 07:57:06 0° 242° (WSW) 2,709 - -42.1°
Reaches altitude 10° 07:59:19 10° 233° (SW) 1,827 - -41.8°
Maximum altitude 08:02:59 36° 166° (SSE) 972 - -41.3°
Drops below altitude 10° 08:07:30 10° 100° (E) 2,255 - -40.6°
Exits shadow 08:08:00 - 98° (E) 2,453 10.5 -40.6°
Sets 08:10:33 0° 92° (E) 3,464 11.4 -40.2°
